This is the latest recevied weather packets stored in our database for station/object KA7KDX-4. If no packets are shown the sender has not sent any weather packets the latest 10 day(s).
| Time | Temp. | Humidity | Pressure | Rain* | Wind** | Luminosity | Snow |
|---|---|---|---|---|---|---|---|
| 1778090406 | 12.22° C | 26% | 1017.7 hPa | 0 mm | - | - | - |
| 1778090106 | 12.22° C | 26% | 1017.8 hPa | 0 mm | - | - | - |
| 1778089806 | 12.22° C | 30% | 1017.8 hPa | 0 mm | - | - | - |
| 1778089506 | 12.22° C | 29% | 1017.7 hPa | 0 mm | - | - | - |
| 1778089206 | 12.22° C | 30% | 1017.6 hPa | 0 mm | - | - | - |
| 1778088905 | 12.22° C | 31% | 1017.6 hPa | 0 mm | - | - | - |
| 1778088605 | 11.67° C | 31% | 1017.7 hPa | 0 mm | - | - | - |
| 1778088305 | 11.67° C | 33% | 1017.6 hPa | 0 mm | - | - | - |
| 1778088005 | 11.67° C | 32% | 1017.7 hPa | 0 mm | - | - | - |
| 1778087706 | 11.67° C | 31% | 1017.8 hPa | 0 mm | - | - | - |
| 1778087406 | 11.67° C | 33% | 1017.8 hPa | 0 mm | - | - | - |
| 1778087106 | 11.67° C | 32% | 1017.6 hPa | 0 mm | - | - | - |
| 1778086806 | 11.67° C | 32% | 1017.6 hPa | 0 mm | - | - | - |
| 1778086507 | 11.67° C | 32% | 1017.5 hPa | 0 mm | - | - | - |
| 1778086205 | 11.67° C | 31% | 1017.5 hPa | 0 mm | - | - | - |
| 1778085905 | 11.67° C | 30% | 1017.5 hPa | 0 mm | - | - | - |
| 1778085605 | 11.67° C | 30% | 1017.3 hPa | 0 mm | - | - | - |
| 1778085305 | 11.67° C | 29% | 1017.2 hPa | 0 mm | - | - | - |
| 1778085006 | 11.67° C | 28% | 1017.1 hPa | 0 mm | - | - | - |
| 1778084706 | 11.67° C | 29% | 1017 hPa | 0 mm | - | - | - |
| 1778084406 | 11.67° C | 30% | 1017 hPa | 0 mm | - | - | - |
| 1778084106 | 11.67° C | 28% | 1016.9 hPa | 0 mm | - | - | - |
| 1778083806 | 11.67° C | 29% | 1016.7 hPa | 0 mm | - | - | - |
| 1778083506 | 11.67° C | 33% | 1016.7 hPa | 0 mm | - | - | - |
| 1778083205 | 11.67° C | 31% | 1016.8 hPa | 0 mm | - | - | - |
* Rain latest hour (hover to see other rain measurements)
** Current wind speed in m/s (hover to see current wind gust speed)